Time,TemperatureF,DewpointF,PressureIn,WindDirection,WindDirectionDegrees,WindSpeedMPH,WindSpeedGustMPH,Humidity,HourlyPrecipIn,Conditions,Clouds,dailyrainin,SolarRadiationWatts/m^2,SoftwareType,DateUTC
2013-02-07 00:01:00,19.0,18.0,-100.00,NNW,333,3.0,4.0,95,0.00,,,0.00,0.000000,,2013-02-07 09:01:00,
2013-02-07 00:52:00,19.0,18.0,-100.00,NW,309,4.0,7.0,94,0.00,,,0.00,0.000000,,2013-02-07 09:52:00,
2013-02-07 01:01:00,19.0,18.0,-100.00,NW,309,4.0,7.0,94,0.00,,,0.00,0.000000,,2013-02-07 10:01:00,
2013-02-07 01:52:00,18.0,16.0,-100.00,NNW,348,3.0,6.0,93,0.00,,,0.00,0.000000,,2013-02-07 10:52:00,
2013-02-07 02:01:00,18.0,16.0,-100.00,NNW,348,3.0,6.0,93,0.00,,,0.00,0.000000,,2013-02-07 11:01:00,
2013-02-07 02:52:00,17.0,15.0,-100.00,North,3,3.0,5.0,93,0.00,,,0.00,0.000000,,2013-02-07 11:52:00,
2013-02-07 03:02:00,17.0,15.0,-100.00,North,3,3.0,5.0,93,0.00,,,0.00,0.000000,,2013-02-07 12:02:00,
2013-02-07 03:53:00,17.0,15.0,-100.00,NNW,327,3.0,8.0,92,0.00,,,0.00,0.000000,,2013-02-07 12:53:00,
2013-02-07 04:02:00,17.0,15.0,-100.00,NNW,327,3.0,8.0,92,0.00,,,0.00,0.000000,,2013-02-07 13:02:00,
2013-02-07 04:52:00,16.0,14.0,-100.00,WNW,296,2.0,3.0,92,0.00,,,0.00,0.000000,,2013-02-07 13:52:00,
2013-02-07 05:01:00,16.0,14.0,-100.00,WNW,296,2.0,3.0,92,0.00,,,0.00,0.000000,,2013-02-07 14:01:00,
2013-02-07 05:11:00,16.0,14.0,-100.00,WNW,296,2.0,3.0,92,0.00,,,0.00,0.000000,,2013-02-07 14:11:00,
2013-02-07 05:21:00,16.0,14.0,-100.00,WNW,296,2.0,3.0,92,0.00,,,0.00,0.000000,,2013-02-07 14:21:00,
2013-02-07 05:31:00,16.0,14.0,-100.00,WNW,296,2.0,3.0,92,0.00,,,0.00,0.000000,,2013-02-07 14:31:00,
2013-02-07 05:52:00,15.0,13.0,-100.00,NW,306,1.0,3.0,92,0.00,,,0.00,0.000000,,2013-02-07 14:52:00,
2013-02-07 06:01:00,15.0,13.0,-100.00,NW,306,1.0,3.0,92,0.00,,,0.00,0.000000,,2013-02-07 15:01:00,
2013-02-07 06:11:00,15.0,13.0,-100.00,NW,306,1.0,3.0,92,0.00,,,0.00,0.000000,,2013-02-07 15:11:00,
2013-02-07 06:21:00,15.0,13.0,-100.00,NW,306,1.0,3.0,92,0.00,,,0.00,0.000000,,2013-02-07 15:21:00,
2013-02-07 06:31:00,15.0,13.0,-100.00,NW,306,1.0,3.0,92,0.00,,,0.00,0.000000,,2013-02-07 15:31:00,
2013-02-07 06:52:00,15.0,13.0,-100.00,WNW,300,1.0,3.0,92,0.00,,,0.00,0.000000,,2013-02-07 15:52:00,
2013-02-07 07:01:00,15.0,13.0,-100.00,WNW,300,1.0,3.0,92,0.00,,,0.00,0.000000,,2013-02-07 16:01:00,
2013-02-07 07:11:00,15.0,13.0,-100.00,WNW,300,1.0,3.0,92,0.00,,,0.00,0.000000,,2013-02-07 16:11:00,
2013-02-07 07:21:00,15.0,13.0,-100.00,WNW,300,1.0,3.0,92,0.00,,,0.00,0.000000,,2013-02-07 16:21:00,
2013-02-07 07:31:00,15.0,13.0,-100.00,WNW,300,1.0,3.0,92,0.00,,,0.00,0.000000,,2013-02-07 16:31:00,
2013-02-07 07:52:00,16.0,14.0,-100.00,NNW,331,2.0,5.0,93,0.00,,,0.00,0.000000,,2013-02-07 16:52:00,
2013-02-07 08:01:00,16.0,14.0,-100.00,NNW,331,2.0,5.0,93,0.00,,,0.00,0.000000,,2013-02-07 17:01:00,
2013-02-07 08:11:00,16.0,14.0,-100.00,NNW,331,2.0,5.0,93,0.00,,,0.00,0.000000,,2013-02-07 17:11:00,
2013-02-07 08:21:00,16.0,14.0,-100.00,NNW,331,2.0,5.0,93,0.00,,,0.00,0.000000,,2013-02-07 17:21:00,
2013-02-07 08:31:00,16.0,14.0,-100.00,NNW,331,2.0,5.0,93,0.00,,,0.00,0.000000,,2013-02-07 17:31:00,
2013-02-07 08:52:00,18.0,16.0,-100.00,NNE,15,1.0,6.0,93,0.00,,,-99.99,0.000000,,2013-02-07 17:52:00,
2013-02-07 09:01:00,18.0,16.0,-100.00,NNE,15,1.0,6.0,93,0.00,,,-99.99,0.000000,,2013-02-07 18:01:00,
2013-02-07 09:11:00,18.0,16.0,-100.00,NNE,15,1.0,6.0,93,0.00,,,-99.99,0.000000,,2013-02-07 18:11:00,
2013-02-07 09:22:00,18.0,16.0,-100.00,NNE,15,1.0,6.0,93,0.00,,,-99.99,0.000000,,2013-02-07 18:22:00,
2013-02-07 09:31:00,18.0,16.0,-100.00,NNE,15,1.0,6.0,93,0.00,,,-99.99,0.000000,,2013-02-07 18:31:00,
2013-02-07 09:52:00,19.0,17.0,-100.00,NE,39,2.0,6.0,93,0.00,,,0.00,14.000000,,2013-02-07 18:52:00,
2013-02-07 10:01:00,19.0,17.0,-100.00,NE,39,2.0,6.0,93,0.00,,,0.00,14.000000,,2013-02-07 19:01:00,
2013-02-07 10:52:00,20.0,18.0,-100.00,ESE,106,2.0,5.0,93,0.00,,,0.00,53.000000,,2013-02-07 19:52:00,
2013-02-07 11:01:00,20.0,18.0,-100.00,ESE,106,2.0,5.0,93,0.00,,,0.00,53.000000,,2013-02-07 20:01:00,
2013-02-07 11:52:00,21.0,19.0,-100.00,WNW,292,3.0,5.0,93,0.00,,,0.00,83.000000,,2013-02-07 20:52:00,
2013-02-07 12:01:00,21.0,19.0,-100.00,WNW,292,3.0,5.0,93,0.00,,,0.00,83.000000,,2013-02-07 21:01:00,
2013-02-07 12:52:00,19.0,18.0,-100.00,NW,317,3.0,7.0,94,0.00,,,0.00,87.000000,,2013-02-07 21:52:00,
2013-02-07 13:02:00,19.0,18.0,-100.00,NW,317,3.0,7.0,94,0.00,,,0.00,87.000000,,2013-02-07 22:02:00,
2013-02-07 13:31:00,19.0,18.0,-100.00,NW,317,3.0,7.0,94,0.00,,,0.00,87.000000,,2013-02-07 22:31:00,
2013-02-07 13:52:00,19.0,18.0,-100.00,NNW,327,2.0,4.0,95,0.00,,,0.00,71.000000,,2013-02-07 22:52:00,
2013-02-07 14:01:00,19.0,18.0,-100.00,NNW,327,2.0,4.0,95,0.00,,,0.00,71.000000,,2013-02-07 23:01:00,
2013-02-07 14:11:00,19.0,18.0,-100.00,NNW,327,2.0,4.0,95,0.00,,,0.00,71.000000,,2013-02-07 23:11:00,
2013-02-07 14:21:00,19.0,18.0,-100.00,NNW,327,2.0,4.0,95,0.00,,,0.00,71.000000,,2013-02-07 23:21:00,
2013-02-07 14:31:00,19.0,18.0,-100.00,NNW,327,2.0,4.0,95,0.00,,,0.00,71.000000,,2013-02-07 23:31:00,
2013-02-07 14:52:00,19.0,18.0,-100.00,NW,308,3.0,7.0,95,0.00,,,0.00,57.000000,,2013-02-07 23:52:00,
2013-02-07 15:01:00,19.0,18.0,-100.00,NW,308,3.0,7.0,95,0.00,,,0.00,57.000000,,2013-02-08 00:01:00,
2013-02-07 15:11:00,19.0,18.0,-100.00,NW,308,3.0,7.0,95,0.00,,,0.00,57.000000,,2013-02-08 00:11:00,
2013-02-07 15:21:00,19.0,18.0,-100.00,NW,308,3.0,7.0,95,0.00,,,0.00,57.000000,,2013-02-08 00:21:00,
2013-02-07 15:31:00,19.0,18.0,-100.00,NW,308,3.0,7.0,95,0.00,,,0.00,57.000000,,2013-02-08 00:31:00,
2013-02-07 16:52:00,19.0,18.0,-100.00,NW,306,3.0,6.0,95,0.00,,,0.00,21.000000,,2013-02-08 01:52:00,
2013-02-07 17:01:00,19.0,18.0,-100.00,NW,306,3.0,6.0,95,0.00,,,0.00,21.000000,,2013-02-08 02:01:00,
2013-02-07 17:11:00,19.0,18.0,-100.00,NW,306,3.0,6.0,95,0.00,,,0.00,21.000000,,2013-02-08 02:11:00,
2013-02-07 17:21:00,19.0,18.0,-100.00,NW,306,3.0,6.0,95,0.00,,,0.00,21.000000,,2013-02-08 02:21:00,
2013-02-07 17:31:00,19.0,18.0,-100.00,NW,306,3.0,6.0,95,0.00,,,0.00,21.000000,,2013-02-08 02:31:00,
2013-02-07 17:52:00,19.0,18.0,-100.00,NW,305,5.0,10.0,95,0.00,,,0.00,0.000000,,2013-02-08 02:52:00,
2013-02-07 18:01:00,19.0,18.0,-100.00,NW,305,5.0,10.0,95,0.00,,,0.00,0.000000,,2013-02-08 03:01:00,
2013-02-07 18:12:00,19.0,18.0,-100.00,NW,305,5.0,10.0,95,0.00,,,0.00,0.000000,,2013-02-08 03:12:00,
2013-02-07 18:22:00,19.0,18.0,-100.00,NW,305,5.0,10.0,95,0.00,,,0.00,0.000000,,2013-02-08 03:22:00,
2013-02-07 18:31:00,19.0,18.0,-100.00,NW,305,5.0,10.0,95,0.00,,,0.00,0.000000,,2013-02-08 03:31:00,
2013-02-07 18:52:00,20.0,19.0,-100.00,NW,306,5.0,10.0,95,0.00,,,0.00,0.000000,,2013-02-08 03:52:00,
2013-02-07 19:01:00,20.0,19.0,-100.00,NW,306,5.0,10.0,95,0.00,,,0.00,0.000000,,2013-02-08 04:01:00,
2013-02-07 19:11:00,20.0,19.0,-100.00,NW,306,5.0,10.0,95,0.00,,,0.00,0.000000,,2013-02-08 04:11:00,
2013-02-07 19:21:00,20.0,19.0,-100.00,NW,306,5.0,10.0,95,0.00,,,0.00,0.000000,,2013-02-08 04:21:00,
2013-02-07 19:31:00,20.0,19.0,-100.00,NW,306,5.0,10.0,95,0.00,,,0.00,0.000000,,2013-02-08 04:31:00,
2013-02-07 19:52:00,20.0,19.0,-100.00,WNW,292,4.0,10.0,95,0.00,,,0.00,0.000000,,2013-02-08 04:52:00,
2013-02-07 20:01:00,20.0,19.0,-100.00,WNW,292,4.0,10.0,95,0.00,,,0.00,0.000000,,2013-02-08 05:01:00,
2013-02-07 20:11:00,20.0,19.0,-100.00,WNW,292,4.0,10.0,95,0.00,,,0.00,0.000000,,2013-02-08 05:11:00,
2013-02-07 20:22:00,20.0,19.0,-100.00,WNW,292,4.0,10.0,95,0.00,,,0.00,0.000000,,2013-02-08 05:22:00,
2013-02-07 20:31:00,20.0,19.0,-100.00,WNW,292,4.0,10.0,95,0.00,,,0.00,0.000000,,2013-02-08 05:31:00,
2013-02-07 20:52:00,20.0,19.0,-100.00,NW,305,5.0,9.0,96,0.00,,,0.00,0.000000,,2013-02-08 05:52:00,
2013-02-07 21:01:00,20.0,19.0,-100.00,NW,305,5.0,9.0,96,0.00,,,0.00,0.000000,,2013-02-08 06:01:00,
2013-02-07 21:11:00,20.0,19.0,-100.00,NW,305,5.0,9.0,96,0.00,,,0.00,0.000000,,2013-02-08 06:11:00,
2013-02-07 21:21:00,20.0,19.0,-100.00,NW,305,5.0,9.0,96,0.00,,,0.00,0.000000,,2013-02-08 06:21:00,
2013-02-07 21:31:00,20.0,19.0,-100.00,NW,305,5.0,9.0,96,0.00,,,0.00,0.000000,,2013-02-08 06:31:00,
2013-02-07 21:52:00,20.0,19.0,-100.00,NNW,344,4.0,8.0,95,0.00,,,0.00,0.000000,,2013-02-08 06:52:00,
2013-02-07 22:01:00,20.0,19.0,-100.00,NNW,344,4.0,8.0,95,0.00,,,0.00,0.000000,,2013-02-08 07:01:00,
2013-02-07 22:11:00,20.0,19.0,-100.00,NNW,344,4.0,8.0,95,0.00,,,0.00,0.000000,,2013-02-08 07:11:00,
2013-02-07 22:21:00,20.0,19.0,-100.00,NNW,344,4.0,8.0,95,0.00,,,0.00,0.000000,,2013-02-08 07:21:00,
2013-02-07 22:31:00,20.0,19.0,-100.00,NNW,344,4.0,8.0,95,0.00,,,0.00,0.000000,,2013-02-08 07:31:00,
2013-02-07 22:52:00,21.0,20.0,-100.00,NW,325,5.0,9.0,96,0.00,,,0.00,0.000000,,2013-02-08 07:52:00,
2013-02-07 23:01:00,21.0,20.0,-100.00,NW,325,5.0,9.0,96,0.00,,,0.00,0.000000,,2013-02-08 08:01:00,
2013-02-07 23:11:00,21.0,20.0,-100.00,NW,325,5.0,9.0,96,0.00,,,0.00,0.000000,,2013-02-08 08:11:00,
2013-02-07 23:21:00,21.0,20.0,-100.00,NW,325,5.0,9.0,96,0.00,,,0.00,0.000000,,2013-02-08 08:21:00,
2013-02-07 23:32:00,21.0,20.0,-100.00,NW,325,5.0,9.0,96,0.00,,,0.00,0.000000,,2013-02-08 08:32:00,
2013-02-07 23:52:00,22.0,21.0,-100.00,WNW,296,3.0,8.0,96,0.00,,,0.00,0.000000,,2013-02-08 08:52:00,